STARLINK-1230, 45189

Orbit data source: Space-Track

STARLINK-1230, 45189 is a payload satellite owned by SpaceX/Seattle (US) in LEO that was launched on Mon, 17 Feb 2020 UTC via an FALCON 9 launch vehicle from the Air Force Eastern Test Range (AFETR). Payload-class satellites include a variety of spacecraft equipped with specific instruments for various scientific and technological missions. These include communications satellites like Starlink; space stations such as the ISS; scientific satellites like the Hubble; Earth observation satellites from companies like Planet Labs, Umbra, and HawkEye 360; GPS; miniature CubeSats for education and research; and military/defense satellites.

Loading next visibility...
Identifier
45189, 2020-012M
Orbit
LEO
Country
Flag of USUS
Related business
Manufacturer
SpaceX/Seattle
Mission
Operational Commercial Communications
Bus & Motor
STARLINK, Unknown motor
Mass
260 kg wet, ~248 kg dry
Launch date (UTC)
2020-02-17 (6 years ago)
Launch vehicle
FALCON 9
Launch site
Air Force Eastern Test Range (AFETR)
Object type
Payload
Rocket body
Debris
Shape & HBR
Box + 1 Pan, 10.1 m
Radar Cross Section
13.562 m², Large (>1 m²)

Expand to show TLE details & history
Last TLE update: 14 hours ago

TLE from 14 hours ago
0 STARLINK-1230
1 45189U 20012M   26073.84528923  .00003215  00000-0  12063-3 0  9997
2 45189  53.1615  15.7855 0001293  84.1223 275.9925 15.30198017332952
Epoch: 2026-03-14T20:17Z
TLE epoch observation values (Epoch: 2026-03-14T20:17:12.989Z)
Latitude
-0.00003°
Longitude
-100.97927°
Altitude
476.028 km
Speed
7.629 km/s
True Right ascension
01h 03m 08s
True Declination
0° 00' 00"
Sunlit
Object was in daylight at epoch
Visualization orbit readout
Latitude
Unknown
Longitude
Unknown
Altitude
Unknown
Speed
Unknown
Apparent Right ascension
Unknown
Apparent Declination
Unknown
Sunlit
N/A
Visualization observer readout
Local Sidereal Time
15:08:17
Azimuth
Unknown
Elevation
Unknown
Doppler factor
Unknown
Orbital elements
Apogee altitude
476.363 km
Perigee altitude
474.591 km
Semi-major axis
6,853.614 km
Eccentricity
0.00013
Inclination
53.1615°
RAAN
15.7855°
Arg. of periapsis
84.1223°
True anomaly
275.97776°
Mean anomaly
275.9925°
Eccentric anomaly
275.98513°
Mean motion
3.82528 °/min
Orbital period
94.11 mins
BSTAR
0.00012063
Loading maneuver chart data...
Computing Atmospheric mass density...

Documentation

Showing up to 5 results
|